This demonstration page uses our WeatherBlox Daily Observations layout. Learn more.

39.92423, -83.80882

Hourly Observations for May 30, 2019

Temp ( °F °C ) Dew Point ( °F °C ) Humidity (%) Winds ( mph kmh ) Pressure ( in mb ) Visibility ( mi km ) Precip ( " mm )
1:56 am 01:56 Partly Cloudy 70 21.1 67 19.4 90 90 SSW 10 17 29.81 1010 10 16.0934 0 0
2:31 am 02:31 Mostly Cloudy with Nearby Thunderstorms 70 21 68 20 94 94 SW 14 22 29.8 1009 10 16.0934 0 0.0254
2:56 am 02:56 Cloudy with Nearby Thunderstorms 67 19.4 63 17.2 87 87 W 12 19 29.79 1009 10 16.0934 0 0.0254
3:03 am 03:03 Cloudy with Light Rain 66 19 64 18 94 94 W 10 17 29.77 1008 10 16.0934 0 0.0254
3:56 am 03:56 Cloudy 67 19.4 66 18.9 97 97 W 6 9 29.77 1008 10 16.0934 0 0.0254
4:56 am 04:56 Cloudy 67 19.4 65 18.3 93 93 S 5 7 29.77 1008 10 16.0934 0 0.0254
5:56 am 05:56 Mostly Cloudy 66 18.9 66 18.9 100 100 WSW 3 6 29.77 1008 10 16.0934 0 0.0254
6:56 am 06:56 Cloudy 66 18.9 66 18.9 100 100 SW 6 9 29.78 1008 10 16.0934 0 0
7:56 am 07:56 Cloudy 67 19.4 66 18.9 97 97 SW 6 9 29.8 1009 10 16.0934 0 0
8:47 am 08:47 Cloudy 66 19 66 19 100 100 SW 9 15 29.8 1009 10 16.0934 0 0
8:56 am 08:56 Cloudy 68 20 66 18.9 93 93 SW 10 17 29.8 1009 10 16.0934 0 0
9:37 am 09:37 Cloudy 70 21 64 18 83 83 WSW 12 19 29.78 1008 10 16.0934 0 0
9:56 am 09:56 Cloudy 68 20 64 17.8 87 87 W 13 20 29.8 1009 10 16.0934 0 0
10:20 am 10:20 Cloudy with Light Rain 66 19 64 18 94 94 WSW 13 20 29.8 1009 10 16.0934 0 0.0254
10:35 am 10:35 Cloudy 66 19 64 18 94 94 W 10 17 29.81 1009 10 16.0934 0 0.0254
10:56 am 10:56 Cloudy with Light Rain 66 18.9 65 18.3 96 96 W 7 11 29.82 1010 10 16.0934 0 0.0254
11:07 am 11:07 Cloudy with Light Rain 66 19 64 18 94 94 W 8 13 29.81 1009 9 14.48406 0.01 0.254
11:12 am 11:12 Cloudy with Light Rain 66 19 64 18 94 94 W 9 15 29.81 1009 9 14.48406 0.01 0.254
11:25 am 11:25 Cloudy with Rain 66 19 66 19 100 100 W 7 11 29.81 1009 5 8.0467 0.03 0.762
11:34 am 11:34 Cloudy with Light Rain 66 19 64 18 94 94 WSW 8 13 29.81 1009 5 8.0467 0.03 0.762
11:39 am 11:39 Cloudy with Light Rain 64 18 64 18 100 100 WSW 8 13 29.82 1010 5 8.0467 0.04 1.016
11:56 am 11:56 Cloudy with Rain 65 18.3 65 18.3 100 100 W 6 9 29.83 1010 5 8.0467 0.08 2.032
12:03 pm 12:03 Cloudy with Light Rain 64 18 64 18 100 100 WSW 5 7 29.81 1009 6 9.65604 0.02 0.508
12:32 pm 12:32 Cloudy with Light Rain 66 19 66 19 100 100 WSW 7 11 29.8 1009 10 16.0934 0.02 0.508
12:44 pm 12:44 Cloudy 66 19 64 18 94 94 WSW 7 11 29.8 1009 10 16.0934 0.02 0.508
12:56 pm 12:56 Cloudy 66 18.9 66 18.9 100 100 SW 6 9 29.8 1009 10 16.0934 0.02 0.508
1:32 pm 13:32 Cloudy with Light Rain 66 19 66 19 100 100 WSW 6 9 29.8 1009 10 16.0934 0 0.0254
1:49 pm 13:49 Cloudy 66 19 66 19 100 100 SSW 8 13 29.79 1009 10 16.0934 0 0.0254
1:56 pm 13:56 Cloudy 67 19.4 66 18.9 97 97 S 6 9 29.78 1008 10 16.0934 0 0.0254
2:21 pm 14:21 Mostly Cloudy with Light Rain 66 19 66 19 100 100 SW 8 13 29.77 1008 10 16.0934 0 0.0254
2:33 pm 14:33 Mostly Cloudy 68 20 66 19 94 94 WSW 13 20 29.77 1008 10 16.0934 0 0.0254
2:46 pm 14:46 Mostly Cloudy 70 21 70 21 100 100 WSW 12 19 29.77 1008 10 16.0934 0 0.0254
2:56 pm 14:56 Mostly Cloudy 69 20.6 67 19.4 93 93 WSW 13 20 29.79 1009 10 16.0934 0 0.0254
3:03 pm 15:03 Mostly Cloudy 70 21 66 19 88 88 SW 14 22 29.76 1008 10 16.0934 0 0
3:31 pm 15:31 Partly Cloudy 72 22 66 19 83 83 WSW 18 30 29.77 1008 10 16.0934 0 0
3:40 pm 15:40 Mostly Cloudy 72 22 66 19 83 83 WSW 18 30 29.77 1008 10 16.0934 0 0
3:56 pm 15:56 Cloudy 71 21.7 66 18.9 84 84 W 16 26 29.79 1009 10 16.0934 0 0
4:23 pm 16:23 Mostly Cloudy 72 22 66 19 83 83 WSW 14 22 29.77 1008 10 16.0934 0 0
4:56 pm 16:56 Partly Cloudy 73 22.8 66 18.9 79 79 WSW 13 20 29.79 1009 10 16.0934 0 0
5:06 pm 17:06 Mostly Cloudy 73 23 64 18 74 74 WSW 12 19 29.76 1008 10 16.0934 0 0
5:20 pm 17:20 Partly Cloudy 73 23 64 18 74 74 SW 13 20 29.76 1008 10 16.0934 0 0
5:43 pm 17:43 Mostly Cloudy 73 23 66 19 78 78 WSW 12 19 29.76 1008 10 16.0934 0 0
5:56 pm 17:56 Mostly Cloudy 73 22.8 66 18.9 79 79 WSW 12 19 29.79 1009 10 16.0934 0 0
6:09 pm 18:09 Mostly Cloudy 73 23 66 19 78 78 SW 9 15 29.76 1008 10 16.0934 0 0
6:56 pm 18:56 Cloudy with Light Rain 71 21.7 65 18.3 81 81 W 6 9 29.78 1009 10 16.0934 0.03 0.762
7:23 pm 19:23 Cloudy with Light Thunderstorms 70 21 66 19 88 88 SSW 6 9 29.78 1008 10 16.0934 0 0.0254
7:38 pm 19:38 Cloudy with Light Rain 68 20 64 18 88 88 WSW 5 7 29.78 1009 10 16.0934 0 0.0254
7:56 pm 19:56 Mostly Cloudy 70 21.1 61 16.1 73 73 WNW 6 9 29.81 1010 10 16.0934 0 0.0254
8:06 pm 20:06 Mostly Cloudy with Nearby Thunderstorms 70 21 63 17 78 78 Calm 29.79 1009 10 16.0934 0 0
8:16 pm 20:16 Mostly Cloudy with Nearby Thunderstorms 70 21 64 18 83 83 SSE 3 6 29.79 1009 10 16.0934 0 0
8:34 pm 20:34 Mostly Cloudy with Nearby Thunderstorms 66 19 64 18 94 94 SSW 6 9 29.81 1009 10 16.0934 0 0
8:56 pm 20:56 Cloudy with Light Rain 66 18.9 64 17.8 93 93 S 9 15 29.8 1009 9 14.48406 0 0.0254
9:56 pm 21:56 Mostly Cloudy 65 18.3 64 17.8 97 97 WNW 6 9 29.84 1011 10 16.0934 0 0.0254
10:37 pm 22:37 Partly Cloudy with Light Rain 63 17 63 17 100 100 S 8 13 29.81 1010 10 16.0934 0.04 1.016
10:56 pm 22:56 Clear 63 17.2 61 16.1 93 93 WSW 6 9 29.83 1010 10 16.0934 0.04 1.016
11:56 pm 23:56 Clear 61 16.1 61 16.1 100 100 Calm 29.84 1011 10 16.0934 0 0

Powered by AerisWeather